Time,TemperatureF,DewpointF,PressureIn,WindDirection,WindDirectionDegrees,WindSpeedMPH,WindSpeedGustMPH,Humidity,HourlyPrecipIn,Conditions,Clouds,dailyrainin,SoftwareType,DateUTC
2013-01-18 00:02:00,42.0,37.0,30.29,NW,324,0.0,10.0,81,0.00,,,0.01,,2013-01-18 06:02:00,
2013-01-18 00:12:00,42.0,37.0,30.29,NW,324,0.0,10.0,81,0.00,,,0.01,,2013-01-18 06:12:00,
2013-01-18 00:22:00,41.0,36.0,30.29,NNW,344,3.0,6.0,82,0.00,,,0.01,,2013-01-18 06:22:00,
2013-01-18 00:32:00,41.0,36.0,30.29,NNE,15,0.0,6.0,82,0.00,,,0.01,,2013-01-18 06:32:00,
2013-01-18 00:43:00,41.0,36.0,30.29,NNE,15,0.0,6.0,82,0.00,,,0.01,,2013-01-18 06:43:00,
2013-01-18 00:52:00,41.0,36.0,30.31,North,10,0.0,3.0,82,0.00,,,0.01,,2013-01-18 06:52:00,
2013-01-18 01:02:00,41.0,36.0,30.30,NW,311,0.0,6.0,82,0.00,,,0.01,,2013-01-18 07:02:00,
2013-01-18 01:12:00,41.0,36.0,30.30,NW,311,0.0,6.0,82,0.00,,,0.01,,2013-01-18 07:12:00,
2013-01-18 01:22:00,41.0,36.0,30.32,North,5,8.0,8.0,83,0.00,,,0.00,,2013-01-18 07:22:00,
2013-01-18 01:32:00,40.0,35.0,30.32,NNW,329,0.0,1.0,83,0.00,,,0.00,,2013-01-18 07:32:00,
2013-01-18 01:42:00,40.0,35.0,30.32,NNW,329,0.0,1.0,83,0.00,,,0.00,,2013-01-18 07:42:00,
2013-01-18 01:52:00,40.0,36.0,30.33,North,5,4.0,5.0,84,0.00,,,0.00,,2013-01-18 07:52:00,
2013-01-18 02:02:00,40.0,36.0,30.34,North,5,0.0,8.0,84,0.00,,,0.00,,2013-01-18 08:02:00,
2013-01-18 02:12:00,40.0,36.0,30.34,North,5,0.0,8.0,84,0.00,,,0.00,,2013-01-18 08:12:00,
2013-01-18 02:22:00,40.0,36.0,30.35,NNE,13,0.0,0.0,84,0.00,,,0.00,,2013-01-18 08:22:00,
2013-01-18 02:32:00,40.0,36.0,30.35,North,355,0.0,4.0,85,0.00,,,0.00,,2013-01-18 08:32:00,
2013-01-18 02:42:00,40.0,36.0,30.35,North,355,0.0,4.0,85,0.00,,,0.00,,2013-01-18 08:42:00,
2013-01-18 02:53:00,39.0,35.0,30.35,NW,316,0.0,3.0,85,0.00,,,0.00,,2013-01-18 08:53:00,
2013-01-18 03:02:00,39.0,35.0,30.35,NNW,333,0.0,1.0,85,0.00,,,0.00,,2013-01-18 09:02:00,
2013-01-18 03:12:00,39.0,35.0,30.35,NNW,333,0.0,1.0,85,0.00,,,0.00,,2013-01-18 09:12:00,
2013-01-18 03:22:00,39.0,35.0,30.36,NNE,26,0.0,0.0,86,0.00,,,0.00,,2013-01-18 09:22:00,
2013-01-18 03:32:00,39.0,35.0,30.37,NNE,18,0.0,0.0,86,0.00,,,0.00,,2013-01-18 09:32:00,
2013-01-18 03:42:00,39.0,35.0,30.37,NNE,18,0.0,0.0,86,0.00,,,0.00,,2013-01-18 09:42:00,
2013-01-18 03:52:00,38.0,34.0,30.37,NNE,24,0.0,0.0,87,0.00,,,0.00,,2013-01-18 09:52:00,
2013-01-18 04:02:00,38.0,34.0,30.38,NNE,24,0.0,0.0,87,0.00,,,0.00,,2013-01-18 10:02:00,
2013-01-18 04:12:00,38.0,34.0,30.38,NNE,24,0.0,0.0,87,0.00,,,0.00,,2013-01-18 10:12:00,
2013-01-18 04:22:00,38.0,34.0,30.38,NNW,336,0.0,0.0,87,0.00,,,0.00,,2013-01-18 10:22:00,
2013-01-18 04:32:00,37.0,34.0,30.39,NNW,336,0.0,0.0,88,0.00,,,0.00,,2013-01-18 10:32:00,
2013-01-18 04:42:00,37.0,34.0,30.39,NNW,336,0.0,0.0,88,0.00,,,0.00,,2013-01-18 10:42:00,
2013-01-18 04:52:00,37.0,34.0,30.39,NW,313,0.0,0.0,89,0.00,,,0.00,,2013-01-18 10:52:00,
2013-01-18 05:02:00,37.0,34.0,30.40,NW,313,0.0,0.0,89,0.00,,,0.00,,2013-01-18 11:02:00,
2013-01-18 05:12:00,37.0,34.0,30.40,NW,313,0.0,0.0,89,0.00,,,0.00,,2013-01-18 11:12:00,
2013-01-18 05:22:00,37.0,34.0,30.41,WNW,296,0.0,0.0,90,0.00,,,0.00,,2013-01-18 11:22:00,
2013-01-18 05:32:00,37.0,34.0,30.41,WNW,296,0.0,0.0,90,0.00,,,0.00,,2013-01-18 11:32:00,
2013-01-18 05:42:00,37.0,34.0,30.41,WNW,296,0.0,0.0,90,0.00,,,0.00,,2013-01-18 11:42:00,
2013-01-18 05:53:00,36.0,33.0,30.42,WNW,296,0.0,2.0,90,0.00,,,0.00,,2013-01-18 11:53:00,
2013-01-18 06:02:00,36.0,33.0,30.42,NW,307,0.0,0.0,90,0.00,,,0.00,,2013-01-18 12:02:00,
2013-01-18 06:12:00,36.0,33.0,30.42,NW,307,0.0,0.0,90,0.00,,,0.00,,2013-01-18 12:12:00,
2013-01-18 06:22:00,36.0,34.0,30.43,NNW,342,0.0,4.0,91,0.00,,,0.00,,2013-01-18 12:22:00,
2013-01-18 06:33:00,36.0,34.0,30.44,NW,316,0.0,2.0,91,0.00,,,0.00,,2013-01-18 12:33:00,
2013-01-18 06:42:00,36.0,34.0,30.44,NW,316,0.0,2.0,91,0.00,,,0.00,,2013-01-18 12:42:00,
2013-01-18 06:53:00,36.0,34.0,30.45,WNW,298,1.0,1.0,91,0.00,,,0.00,,2013-01-18 12:53:00,
2013-01-18 07:03:00,36.0,34.0,30.45,NW,319,0.0,2.0,92,0.00,,,0.00,,2013-01-18 13:03:00,
2013-01-18 07:12:00,36.0,34.0,30.45,NW,319,0.0,2.0,92,0.00,,,0.00,,2013-01-18 13:12:00,
2013-01-18 07:23:00,36.0,34.0,30.46,NW,309,0.0,3.0,92,0.00,,,0.00,,2013-01-18 13:23:00,
2013-01-18 07:33:00,36.0,34.0,30.47,NW,308,3.0,6.0,92,0.00,,,0.00,,2013-01-18 13:33:00,
2013-01-18 07:43:00,36.0,34.0,30.47,NW,308,3.0,6.0,92,0.00,,,0.00,,2013-01-18 13:43:00,
2013-01-18 07:53:00,36.0,34.0,30.48,NW,313,0.0,0.0,92,0.00,,,0.00,,2013-01-18 13:53:00,
2013-01-18 08:03:00,36.0,34.0,30.49,NW,312,0.0,0.0,92,0.00,,,0.00,,2013-01-18 14:03:00,
2013-01-18 08:12:00,36.0,34.0,30.49,NW,312,0.0,0.0,92,0.00,,,0.00,,2013-01-18 14:12:00,
2013-01-18 08:23:00,37.0,35.0,30.50,NW,304,0.0,3.0,92,0.00,,,0.00,,2013-01-18 14:23:00,
2013-01-18 08:33:00,38.0,36.0,30.50,North,5,0.0,4.0,92,0.00,,,0.00,,2013-01-18 14:33:00,
2013-01-18 08:42:00,38.0,36.0,30.50,North,5,0.0,4.0,92,0.00,,,0.00,,2013-01-18 14:42:00,
2013-01-18 08:53:00,39.0,36.0,30.50,WNW,288,1.0,5.0,90,0.00,,,0.00,,2013-01-18 14:53:00,
2013-01-18 09:03:00,39.0,36.0,30.51,NNE,21,0.0,2.0,89,0.00,,,0.00,,2013-01-18 15:03:00,
2013-01-18 09:12:00,39.0,36.0,30.51,NNE,21,0.0,2.0,89,0.00,,,0.00,,2013-01-18 15:12:00,
2013-01-18 09:23:00,41.0,37.0,30.51,NW,324,0.0,2.0,85,0.00,,,0.00,,2013-01-18 15:23:00,
2013-01-18 09:33:00,42.0,38.0,30.52,NNW,338,3.0,8.0,84,0.00,,,0.00,,2013-01-18 15:33:00,
2013-01-18 09:43:00,42.0,38.0,30.52,NNW,338,3.0,8.0,84,0.00,,,0.00,,2013-01-18 15:43:00,
2013-01-18 09:53:00,44.0,38.0,30.51,North,5,6.0,11.0,79,0.00,,,0.00,,2013-01-18 15:53:00,
2013-01-18 10:03:00,44.0,38.0,30.52,North,355,0.0,6.0,78,0.00,,,0.00,,2013-01-18 16:03:00,
2013-01-18 10:12:00,44.0,38.0,30.52,North,355,0.0,6.0,78,0.00,,,0.00,,2013-01-18 16:12:00,
2013-01-18 10:23:00,46.0,38.0,30.52,NW,313,0.0,4.0,74,0.00,,,0.00,,2013-01-18 16:23:00,
2013-01-18 10:33:00,47.0,39.0,30.51,North,10,4.0,6.0,74,0.00,,,0.00,,2013-01-18 16:33:00,
2013-01-18 10:42:00,47.0,39.0,30.51,North,10,4.0,6.0,74,0.00,,,0.00,,2013-01-18 16:42:00,
2013-01-18 10:53:00,48.0,39.0,30.51,North,5,10.0,13.0,71,0.00,,,0.00,,2013-01-18 16:53:00,
2013-01-18 11:03:00,49.0,40.0,30.51,NW,315,2.0,5.0,70,0.00,,,0.00,,2013-01-18 17:03:00,
2013-01-18 11:13:00,49.0,40.0,30.51,NW,315,2.0,5.0,70,0.00,,,0.00,,2013-01-18 17:13:00,
2013-01-18 11:23:00,50.0,39.0,30.50,NNE,27,9.0,10.0,67,0.00,,,0.00,,2013-01-18 17:23:00,
2013-01-18 11:33:00,51.0,40.0,30.49,North,11,5.0,5.0,66,0.00,,,0.00,,2013-01-18 17:33:00,
2013-01-18 11:42:00,51.0,40.0,30.49,North,11,5.0,5.0,66,0.00,,,0.00,,2013-01-18 17:42:00,
2013-01-18 11:53:00,53.0,41.0,30.48,North,5,1.0,10.0,64,0.00,,,0.00,,2013-01-18 17:53:00,
2013-01-18 12:03:00,54.0,41.0,30.47,NE,37,0.0,3.0,62,0.00,,,0.00,,2013-01-18 18:03:00,
2013-01-18 12:13:00,54.0,41.0,30.47,NE,37,0.0,3.0,62,0.00,,,0.00,,2013-01-18 18:13:00,
2013-01-18 12:23:00,54.0,40.0,30.46,NNE,15,0.0,6.0,60,0.00,,,0.00,,2013-01-18 18:23:00,
2013-01-18 12:33:00,54.0,40.0,30.45,ENE,57,3.0,7.0,59,0.00,,,0.00,,2013-01-18 18:33:00,
2013-01-18 12:43:00,54.0,40.0,30.45,ENE,57,3.0,7.0,59,0.00,,,0.00,,2013-01-18 18:43:00,
2013-01-18 12:53:00,55.0,40.0,30.45,NNE,17,0.0,4.0,56,0.00,,,0.00,,2013-01-18 18:53:00,
2013-01-18 13:03:00,55.0,40.0,30.45,NNE,17,0.0,4.0,56,0.00,,,0.00,,2013-01-18 19:03:00,
2013-01-18 13:12:00,55.0,40.0,30.45,NNE,17,0.0,4.0,56,0.00,,,0.00,,2013-01-18 19:12:00,
2013-01-18 13:22:00,56.0,40.0,30.43,North,355,0.0,1.0,54,0.00,,,0.00,,2013-01-18 19:22:00,
2013-01-18 13:33:00,56.0,39.0,30.43,East,89,4.0,8.0,52,0.00,,,0.00,,2013-01-18 19:33:00,
2013-01-18 13:43:00,56.0,39.0,30.43,East,89,4.0,8.0,52,0.00,,,0.00,,2013-01-18 19:43:00,
2013-01-18 13:53:00,57.0,39.0,30.42,ENE,65,3.0,4.0,51,0.00,,,0.00,,2013-01-18 19:53:00,
2013-01-18 14:03:00,57.0,40.0,30.42,NNE,31,1.0,3.0,52,0.00,,,0.00,,2013-01-18 20:03:00,
2013-01-18 14:12:00,57.0,40.0,30.42,NNE,31,1.0,3.0,52,0.00,,,0.00,,2013-01-18 20:12:00,
2013-01-18 14:23:00,58.0,39.0,30.41,NE,34,2.0,9.0,49,0.00,,,0.00,,2013-01-18 20:23:00,
2013-01-18 14:33:00,58.0,40.0,30.41,North,5,7.0,8.0,51,0.00,,,0.00,,2013-01-18 20:33:00,
2013-01-18 14:42:00,58.0,40.0,30.41,North,5,7.0,8.0,51,0.00,,,0.00,,2013-01-18 20:42:00,
2013-01-18 14:53:00,58.0,38.0,30.41,NNE,33,2.0,3.0,47,0.00,,,0.00,,2013-01-18 20:53:00,
2013-01-18 15:03:00,58.0,37.0,30.41,NE,47,3.0,6.0,46,0.00,,,0.00,,2013-01-18 21:03:00,
2013-01-18 15:13:00,58.0,37.0,30.41,NE,47,3.0,6.0,46,0.00,,,0.00,,2013-01-18 21:13:00,
2013-01-18 15:23:00,58.0,37.0,30.41,NNE,27,5.0,6.0,45,0.00,,,0.00,,2013-01-18 21:23:00,
2013-01-18 15:33:00,58.0,38.0,30.41,NNE,29,5.0,6.0,48,0.00,,,0.00,,2013-01-18 21:33:00,
2013-01-18 15:42:00,58.0,38.0,30.41,NNE,29,5.0,6.0,48,0.00,,,0.00,,2013-01-18 21:42:00,
2013-01-18 15:53:00,58.0,38.0,30.41,ENE,62,0.0,10.0,47,0.00,,,0.00,,2013-01-18 21:53:00,
2013-01-18 16:03:00,57.0,38.0,30.41,ENE,71,3.0,10.0,48,0.00,,,0.00,,2013-01-18 22:03:00,
2013-01-18 16:12:00,57.0,38.0,30.41,ENE,71,3.0,10.0,48,0.00,,,0.00,,2013-01-18 22:12:00,
2013-01-18 16:23:00,57.0,39.0,30.41,East,83,6.0,9.0,50,0.00,,,0.00,,2013-01-18 22:23:00,
2013-01-18 16:32:00,57.0,39.0,30.41,NE,44,4.0,8.0,50,0.00,,,0.00,,2013-01-18 22:32:00,
2013-01-18 16:42:00,57.0,39.0,30.41,NE,44,4.0,8.0,50,0.00,,,0.00,,2013-01-18 22:42:00,
2013-01-18 16:53:00,56.0,39.0,30.42,NE,55,3.0,5.0,52,0.00,,,0.00,,2013-01-18 22:53:00,
2013-01-18 17:03:00,56.0,39.0,30.42,NE,39,3.0,3.0,53,0.00,,,0.00,,2013-01-18 23:03:00,
2013-01-18 17:12:00,56.0,39.0,30.42,NE,39,3.0,3.0,53,0.00,,,0.00,,2013-01-18 23:12:00,
2013-01-18 17:22:00,55.0,39.0,30.42,NE,55,0.0,3.0,55,0.00,,,0.00,,2013-01-18 23:22:00,
2013-01-18 17:33:00,54.0,39.0,30.41,NNE,28,0.0,0.0,56,0.00,,,0.00,,2013-01-18 23:33:00,
2013-01-18 17:42:00,54.0,39.0,30.41,NNE,28,0.0,0.0,56,0.00,,,0.00,,2013-01-18 23:42:00,
2013-01-18 17:53:00,53.0,39.0,30.42,NE,53,2.0,2.0,59,0.00,,,0.00,,2013-01-18 23:53:00,
2013-01-18 18:02:00,52.0,39.0,30.42,NE,53,0.0,2.0,60,0.00,,,0.00,,2013-01-19 00:02:00,
2013-01-18 18:12:00,52.0,39.0,30.42,NE,53,0.0,2.0,60,0.00,,,0.00,,2013-01-19 00:12:00,
2013-01-18 18:22:00,51.0,38.0,30.42,NE,53,0.0,0.0,62,0.00,,,0.00,,2013-01-19 00:22:00,
2013-01-18 18:32:00,51.0,39.0,30.42,NE,53,0.0,0.0,63,0.00,,,0.00,,2013-01-19 00:32:00,
2013-01-18 18:42:00,51.0,39.0,30.42,NE,53,0.0,0.0,63,0.00,,,0.00,,2013-01-19 00:42:00,
2013-01-18 18:53:00,49.0,39.0,30.43,NE,53,0.0,0.0,67,0.00,,,0.00,,2013-01-19 00:53:00,
2013-01-18 19:02:00,48.0,38.0,30.42,NE,53,0.0,0.0,67,0.00,,,0.00,,2013-01-19 01:02:00,
2013-01-18 19:12:00,48.0,38.0,30.42,NE,53,0.0,0.0,67,0.00,,,0.00,,2013-01-19 01:12:00,
2013-01-18 19:22:00,47.0,37.0,30.43,NE,53,0.0,0.0,69,0.00,,,0.00,,2013-01-19 01:22:00,
2013-01-18 19:32:00,46.0,37.0,30.43,NE,53,0.0,0.0,70,0.00,,,0.00,,2013-01-19 01:32:00,
2013-01-18 19:42:00,46.0,37.0,30.43,NE,53,0.0,0.0,70,0.00,,,0.00,,2013-01-19 01:42:00,
2013-01-18 19:53:00,45.0,37.0,30.44,NE,53,0.0,0.0,73,0.00,,,0.00,,2013-01-19 01:53:00,
2013-01-18 20:02:00,44.0,36.0,30.44,NE,53,0.0,0.0,74,0.00,,,0.00,,2013-01-19 02:02:00,
2013-01-18 20:12:00,44.0,36.0,30.44,NE,53,0.0,0.0,74,0.00,,,0.00,,2013-01-19 02:12:00,
2013-01-18 20:22:00,44.0,37.0,30.43,NE,53,0.0,0.0,77,0.00,,,0.00,,2013-01-19 02:22:00,
2013-01-18 20:33:00,44.0,38.0,30.44,NE,53,0.0,0.0,78,0.00,,,0.00,,2013-01-19 02:33:00,
2013-01-18 20:42:00,44.0,38.0,30.44,NE,53,0.0,0.0,78,0.00,,,0.00,,2013-01-19 02:42:00,
2013-01-18 20:53:00,43.0,37.0,30.43,NE,53,0.0,0.0,78,0.00,,,0.00,,2013-01-19 02:53:00,
2013-01-18 21:03:00,43.0,37.0,30.43,NE,53,0.0,0.0,78,0.00,,,0.00,,2013-01-19 03:03:00,
2013-01-18 21:12:00,43.0,37.0,30.43,NE,53,0.0,0.0,78,0.00,,,0.00,,2013-01-19 03:12:00,
2013-01-18 21:22:00,42.0,36.0,30.43,NE,53,0.0,0.0,79,0.00,,,0.00,,2013-01-19 03:22:00,
2013-01-18 21:32:00,42.0,37.0,30.42,NE,53,0.0,0.0,81,0.00,,,0.00,,2013-01-19 03:32:00,
2013-01-18 21:43:00,42.0,37.0,30.42,NE,53,0.0,0.0,81,0.00,,,0.00,,2013-01-19 03:43:00,
2013-01-18 21:52:00,41.0,36.0,30.42,NE,53,0.0,0.0,83,0.00,,,0.00,,2013-01-19 03:52:00,
2013-01-18 22:02:00,41.0,37.0,30.43,NE,53,0.0,0.0,84,0.00,,,0.00,,2013-01-19 04:02:00,
2013-01-18 22:12:00,41.0,37.0,30.43,NE,53,0.0,0.0,84,0.00,,,0.00,,2013-01-19 04:12:00,
2013-01-18 22:22:00,40.0,36.0,30.42,NE,53,0.0,0.0,84,0.00,,,0.00,,2013-01-19 04:22:00,
2013-01-18 22:32:00,40.0,36.0,30.42,NE,53,0.0,0.0,84,0.00,,,0.00,,2013-01-19 04:32:00,
2013-01-18 22:42:00,40.0,36.0,30.42,NE,53,0.0,0.0,84,0.00,,,0.00,,2013-01-19 04:42:00,
2013-01-18 22:53:00,40.0,36.0,30.41,NE,53,0.0,0.0,84,0.00,,,0.00,,2013-01-19 04:53:00,
2013-01-18 23:03:00,40.0,36.0,30.41,NE,53,0.0,0.0,84,0.00,,,0.00,,2013-01-19 05:03:00,
2013-01-18 23:12:00,40.0,36.0,30.41,NE,53,0.0,0.0,84,0.00,,,0.00,,2013-01-19 05:12:00,
2013-01-18 23:22:00,40.0,36.0,30.41,NE,53,0.0,0.0,84,0.00,,,0.00,,2013-01-19 05:22:00,
2013-01-18 23:32:00,40.0,36.0,30.41,NE,53,0.0,0.0,84,0.00,,,0.00,,2013-01-19 05:32:00,
2013-01-18 23:42:00,40.0,36.0,30.41,NE,53,0.0,0.0,84,0.00,,,0.00,,2013-01-19 05:42:00,
2013-01-18 23:53:00,40.0,35.0,30.40,NE,44,0.0,0.0,83,0.00,,,0.00,,2013-01-19 05:53:00,